Pauls Valley, OK

2:51 PM CDT on April 24, 2017 (GMT -0500)
Pauls Valley Municipal

Weather History for KPVJ - October, 2013

Change the Weather History Date:

Monday, October 14, 2013

  Actual Average (KADH) Record (KADH)
Temperature  
Mean Temperature 66 °F -  
Max Temperature 69 °F 77 °F 91 °F (2015)
Min Temperature 62 °F 52 °F 33 °F (1969)
Growing Degree Days 16 (Base 50)    
Moisture  
Dew Point 64 °F    
Average Humidity 92    
Maximum Humidity 100    
Minimum Humidity 83    
Precipitation  
Precipitation 0.84 in - - ()
Sea Level Pressure  
Sea Level Pressure 30.02 in    
Wind  
Wind Speed 9 mph (SE)    
Max Wind Speed 15 mph    
Max Gust Speed 21 mph    
Visibility 8 miles    
Events Rain    
Averages and records for this station are not official NWS values.
T = Trace of Precipitation, MM = Missing Value Source: NWS Daily Summary

Daily Weather History Graph

Daily Weather History Graph

Search for Another Location

Airport or City:

Trip Planner

Search our weather history database for the weather conditions in past years. The results will help you decide how hot, cold, wet, or windy it might be!

Date:

Astronomy

Oct. 14, 2013 Rise Set
Actual Time 7:34 AM CDT 6:55 PM CDT
Civil Twilight 7:08 AM CDT 7:20 PM CDT
Nautical Twilight 6:39 AM CDT 7:49 PM CDT
Astronomical Twilight 6:10 AM CDT 8:18 PM CDT
Moon 4:16 PM CDT (10/14) 3:02 AM CDT (10/14)
Length of Visible Light 12h 11m
Length of Day
11h 21m
Waxing Gibbous, 79% of the Moon is Illuminated
Oct 14
Waxing Gibbous
Oct 18
Full
Oct 26
Last Quarter
Nov 3
New
Nov 9
First Quarter

Hourly Weather History & Observations

Time (CDT) Temp. Dew Point Humidity Pressure Visibility Wind Dir Wind Speed Gust Speed Precip Events Conditions
12:15 AM 68.0 °F 62.6 °F 83% 30.17 in 10.0 mi SE 6.9 mph - N/A   Unknown
12:35 AM 68.0 °F 62.6 °F 83% 30.16 in 10.0 mi SE 6.9 mph - N/A   Unknown
12:55 AM 68.0 °F 62.6 °F 83% 30.16 in 10.0 mi SE 6.9 mph - N/A   Unknown
1:15 AM 68.0 °F 62.6 °F 83% 30.15 in 10.0 mi SE 8.1 mph - N/A   Unknown
1:35 AM 68.0 °F 62.6 °F 83% 30.15 in 10.0 mi SE 8.1 mph - N/A   Unknown
1:55 AM 68.0 °F 62.6 °F 83% 30.15 in 10.0 mi SE 11.5 mph 16.1 mph N/A   Unknown
2:15 AM 68.0 °F 62.6 °F 83% 30.15 in 10.0 mi SE 9.2 mph - N/A   Unknown
2:35 AM 68.0 °F 62.6 °F 83% 30.14 in 10.0 mi SE 11.5 mph - N/A   Unknown
2:55 AM 68.0 °F 62.6 °F 83% 30.13 in 10.0 mi SE 11.5 mph - N/A   Unknown
3:15 AM 68.0 °F 62.6 °F 83% 30.13 in 10.0 mi SE 11.5 mph 17.3 mph N/A   Unknown
3:35 AM 68.0 °F 62.6 °F 83% 30.11 in 10.0 mi SE 13.8 mph 17.3 mph N/A   Unknown
3:55 AM 68.0 °F 62.6 °F 83% 30.11 in 10.0 mi SE 9.2 mph 16.1 mph N/A   Unknown
4:15 AM 68.0 °F 62.6 °F 83% 30.11 in 10.0 mi SE 11.5 mph 16.1 mph N/A   Unknown
4:35 AM 68.0 °F 62.6 °F 83% 30.11 in 10.0 mi SE 9.2 mph - N/A   Unknown
4:55 AM 68.0 °F 62.6 °F 83% 30.11 in 10.0 mi SE 8.1 mph - N/A   Unknown
5:15 AM 68.0 °F 62.6 °F 83% 30.09 in 10.0 mi SE 9.2 mph - N/A   Unknown
5:35 AM 68.0 °F 62.6 °F 83% 30.10 in 10.0 mi SSE 8.1 mph - N/A   Unknown
5:55 AM 68.0 °F 62.6 °F 83% 30.10 in 10.0 mi SE 8.1 mph - N/A   Unknown
6:15 AM 68.0 °F 62.6 °F 83% 30.10 in 10.0 mi SE 9.2 mph - N/A   Unknown
6:35 AM 68.0 °F 62.6 °F 83% 30.10 in 10.0 mi SE 9.2 mph - N/A   Unknown
6:55 AM 66.2 °F 62.6 °F 88% 30.10 in 10.0 mi SE 9.2 mph - N/A Rain Light Rain
7:15 AM 66.2 °F 62.6 °F 88% 30.10 in 7.0 mi SE 8.1 mph - N/A   Drizzle
7:35 AM 64.4 °F 62.6 °F 94% 30.09 in 5.0 mi SE 9.2 mph - 0.03 in Rain Rain
7:55 AM 64.4 °F 62.6 °F 94% 30.09 in 4.0 mi ESE 9.2 mph - 0.06 in Rain Rain
8:15 AM 64.4 °F 62.6 °F 94% 30.09 in 5.0 mi ESE 8.1 mph - 0.04 in Rain Rain
8:35 AM 64.4 °F 62.6 °F 94% 30.08 in 4.0 mi ESE 6.9 mph - 0.07 in Rain Rain
8:55 AM 64.4 °F 62.6 °F 94% 30.08 in 4.0 mi SE 11.5 mph - 0.09 in Rain Rain
9:15 AM 64.4 °F 62.6 °F 94% 30.08 in 4.0 mi SE 9.2 mph - 0.04 in Rain Rain
9:35 AM 64.4 °F 62.6 °F 94% 30.07 in 3.0 mi ESE 11.5 mph - 0.09 in Rain Rain
9:55 AM 62.6 °F 62.6 °F 100% 30.07 in 4.0 mi ESE 12.7 mph - 0.14 in Rain Rain
10:15 AM 62.6 °F 62.6 °F 100% 30.06 in 3.0 mi ESE 12.7 mph - 0.06 in Rain Heavy Rain
10:35 AM 62.6 °F 62.6 °F 100% 30.06 in 1.8 mi ESE 12.7 mph 19.6 mph 0.22 in Rain Heavy Rain
10:55 AM 62.6 °F 60.8 °F 94% 30.05 in 5.0 mi ESE 13.8 mph 19.6 mph 0.25 in Rain Light Rain
11:15 AM 62.6 °F 60.8 °F 94% 30.05 in 5.0 mi ESE 11.5 mph - 0.01 in Rain Light Rain
11:35 AM 62.6 °F 60.8 °F 94% 30.04 in 4.0 mi SE 11.5 mph 18.4 mph 0.03 in Rain Light Rain
11:55 AM 62.6 °F 60.8 °F 94% 30.04 in 2.5 mi ESE 12.7 mph - 0.11 in Rain Heavy Rain
12:15 PM 62.6 °F 60.8 °F 94% 30.03 in 5.0 mi SE 13.8 mph - 0.03 in Rain Light Rain
12:35 PM 62.6 °F 62.6 °F 100% 30.02 in 7.0 mi SE 15.0 mph - 0.04 in Rain Light Rain
12:55 PM 62.6 °F 62.6 °F 100% 30.01 in 7.0 mi SE 10.4 mph 16.1 mph 0.05 in Rain Light Rain
1:15 PM 62.6 °F 62.6 °F 100% 29.99 in 4.0 mi SE 12.7 mph - 0.05 in Rain Rain
1:35 PM 62.6 °F 62.6 °F 100% 29.98 in 4.0 mi SE 15.0 mph 20.7 mph 0.11 in Rain Rain
1:55 PM 62.6 °F 62.6 °F 100% 29.97 in 10.0 mi SSE 10.4 mph - 0.12 in Rain Rain
2:15 PM 62.6 °F 62.6 °F 100% 29.96 in 10.0 mi South 6.9 mph - N/A   Drizzle
2:35 PM 64.4 °F 62.6 °F 94% 29.96 in 10.0 mi SSE 9.2 mph - 0.01 in   Drizzle
2:55 PM 64.4 °F 62.6 °F 94% 29.95 in 10.0 mi SE 10.4 mph - 0.01 in   Unknown
3:15 PM 64.4 °F 64.4 °F 100% 29.94 in 10.0 mi SE 8.1 mph - N/A Rain Light Rain
3:35 PM 64.4 °F 64.4 °F 100% 29.94 in 10.0 mi SE 6.9 mph - N/A   Unknown
3:55 PM 66.2 °F 64.4 °F 94% 29.93 in 10.0 mi SSE 9.2 mph - N/A   Unknown
4:15 PM 68.0 °F 64.4 °F 88% 29.92 in 10.0 mi SSE 9.2 mph - N/A   Unknown
4:35 PM 68.0 °F 66.2 °F 94% 29.92 in 10.0 mi SSE 9.2 mph - N/A   Unknown
4:55 PM 68.0 °F 66.2 °F 94% 29.92 in 10.0 mi SSE 11.5 mph - N/A   Unknown
5:15 PM 68.0 °F 66.2 °F 94% 29.91 in 10.0 mi SSE 9.2 mph - N/A   Unknown
5:35 PM 68.0 °F 66.2 °F 94% 29.92 in 10.0 mi SSE 10.4 mph - N/A   Unknown
5:55 PM 68.0 °F 68.0 °F 100% 29.92 in 10.0 mi SSE 8.1 mph - N/A Rain Rain
6:15 PM 68.0 °F 66.2 °F 94% 29.92 in 3.0 mi SSE 9.2 mph - 0.01 in Rain Light Rain
6:35 PM 68.0 °F 68.0 °F 100% 29.91 in 10.0 mi SE 9.2 mph - 0.01 in   Light Drizzle
6:55 PM 68.0 °F 66.2 °F 94% 29.91 in 10.0 mi SE 8.1 mph - 0.01 in   Unknown
7:15 PM 68.0 °F 66.2 °F 94% 29.91 in 10.0 mi SE 8.1 mph - N/A   Unknown
7:35 PM 68.0 °F 66.2 °F 94% 29.92 in 10.0 mi SE 6.9 mph - N/A   Unknown
7:55 PM 68.0 °F 66.2 °F 94% 29.91 in 10.0 mi SE 6.9 mph - N/A   Unknown
8:15 PM 68.0 °F 66.2 °F 94% 29.92 in 10.0 mi SE 8.1 mph - N/A   Unknown
8:35 PM 68.0 °F 68.0 °F 100% 29.92 in 10.0 mi SSE 10.4 mph - N/A   Unknown
8:55 PM 68.0 °F 68.0 °F 100% 29.93 in 7.0 mi SSE 11.5 mph 17.3 mph N/A   Unknown
9:15 PM 69.8 °F 68.0 °F 94% 29.93 in 7.0 mi SSE 12.7 mph - N/A   Unknown
9:35 PM 69.8 °F 68.0 °F 94% 29.93 in 7.0 mi SSE 11.5 mph 19.6 mph N/A   Unknown
9:55 PM 69.8 °F 68.0 °F 94% 29.94 in 7.0 mi SSE 11.5 mph 16.1 mph N/A   Unknown
10:15 PM 69.8 °F 68.0 °F 94% 29.95 in 7.0 mi SSE 9.2 mph - N/A   Unknown
10:35 PM 69.8 °F 68.0 °F 94% 29.94 in 10.0 mi SSE 12.7 mph - N/A   Unknown
10:55 PM 69.8 °F 68.0 °F 94% 29.94 in 10.0 mi SSE 12.7 mph 17.3 mph N/A   Unknown
11:15 PM 69.8 °F 68.0 °F 94% 29.93 in 10.0 mi South 11.5 mph - N/A   Unknown
11:35 PM 69.8 °F 68.0 °F 94% 29.93 in 10.0 mi SSE 9.2 mph - N/A   Unknown
11:55 PM 69.8 °F 68.0 °F 94% 29.93 in 10.0 mi South 10.4 mph - N/A   Unknown